TimeCDT,TemperatureF,Dew PointF,Humidity,Sea Level PressureIn,VisibilityMPH,Wind Direction,Wind SpeedMPH,Gust SpeedMPH,PrecipitationIn,Events,Conditions,WindDirDegrees,DateUTC
12:53 AM,55.9,54.0,93,30.08,10.0,Calm,Calm,-,N/A,,Clear,0,2013-07-01 05:53:00
1:53 AM,55.0,53.1,93,30.09,6.0,Calm,Calm,-,N/A,,Clear,0,2013-07-01 06:53:00
2:53 AM,54.0,52.0,93,30.09,8.0,Calm,Calm,-,N/A,,Clear,0,2013-07-01 07:53:00
3:53 AM,53.1,51.1,93,30.10,10.0,Calm,Calm,-,N/A,,Clear,0,2013-07-01 08:53:00
4:08 AM,53.1,51.1,93,30.10,4.0,Calm,Calm,-,N/A,,Partly Cloudy,0,2013-07-01 09:08:00
4:51 AM,53.6,51.8,94,30.11,2.5,Calm,Calm,-,N/A,,Mostly Cloudy,0,2013-07-01 09:51:00
4:53 AM,53.1,52.0,96,30.11,1.5,Calm,Calm,-,N/A,,Mostly Cloudy,0,2013-07-01 09:53:00
4:55 AM,53.1,52.0,96,30.11,0.8,Calm,Calm,-,N/A,,Mist,0,2013-07-01 09:55:00
5:53 AM,55.9,55.0,97,30.12,0.2,Calm,Calm,-,N/A,Fog,Fog,0,2013-07-01 10:53:00
7:00 AM,57.2,55.4,94,30.13,0.5,Calm,Calm,-,N/A,Fog,Fog,0,2013-07-01 12:00:00
7:11 AM,57.2,55.4,94,30.14,6.0,Calm,Calm,-,N/A,,Mist,0,2013-07-01 12:11:00
7:21 AM,57.2,55.4,94,30.13,10.0,Calm,Calm,-,N/A,,Scattered Clouds,0,2013-07-01 12:21:00
7:53 AM,62.1,57.0,84,30.14,10.0,Calm,Calm,-,N/A,,Clear,0,2013-07-01 12:53:00
8:53 AM,69.1,55.0,61,30.15,10.0,Variable,4.6,-,N/A,,Clear,0,2013-07-01 13:53:00
9:53 AM,73.9,52.0,46,30.15,10.0,Variable,5.8,-,N/A,,Clear,0,2013-07-01 14:53:00
10:53 AM,77.0,50.0,39,30.15,10.0,ENE,6.9,-,N/A,,Clear,60,2013-07-01 15:53:00
11:53 AM,79.0,51.1,38,30.14,10.0,ENE,8.1,-,N/A,,Clear,70,2013-07-01 16:53:00
12:53 PM,80.1,48.9,34,30.14,10.0,NE,9.2,17.3,N/A,,Clear,40,2013-07-01 17:53:00
1:53 PM,81.0,48.9,33,30.12,10.0,ENE,10.4,19.6,N/A,,Clear,70,2013-07-01 18:53:00
2:53 PM,82.9,51.1,33,30.12,10.0,ENE,11.5,17.3,N/A,,Partly Cloudy,60,2013-07-01 19:53:00
3:53 PM,82.0,50.0,33,30.12,10.0,Variable,6.9,17.3,N/A,,Scattered Clouds,0,2013-07-01 20:53:00
4:53 PM,82.0,51.1,34,30.12,10.0,East,11.5,-,N/A,,Partly Cloudy,80,2013-07-01 21:53:00
5:53 PM,81.0,50.0,34,30.11,10.0,ENE,9.2,-,N/A,,Clear,70,2013-07-01 22:53:00
6:53 PM,80.1,52.0,38,30.11,10.0,East,5.8,-,N/A,,Clear,90,2013-07-01 23:53:00
7:53 PM,77.0,53.1,43,30.11,10.0,Calm,Calm,-,N/A,,Clear,0,2013-07-02 00:53:00
8:53 PM,66.9,60.1,79,30.10,10.0,Calm,Calm,-,N/A,,Clear,0,2013-07-02 01:53:00
9:53 PM,63.0,57.0,81,30.12,10.0,Calm,Calm,-,N/A,,Clear,0,2013-07-02 02:53:00
10:53 PM,62.1,57.9,86,30.12,10.0,Calm,Calm,-,N/A,,Scattered Clouds,0,2013-07-02 03:53:00
11:53 PM,62.1,57.9,86,30.12,10.0,Calm,Calm,-,N/A,,Mostly Cloudy,0,2013-07-02 04:53:00